Location: La Trinit�
(48.1620°N, 3.4512°W)
Time: 15:13:44
(UTC+00:00)

USA 306 - Pass Details

Date: 08 May 2021
Orbit: 565 x 575 km, 54.0° (Epoch: 11 May)

Event Time Altitude Azimuth Distance (km) Brightness Sun altitude
Rises 20:35:09 0° 288° (WNW) 2,769 7.9 -8.9°
Reaches altitude 10° 20:37:31 10° 297° (WNW) 1,873 7.0 -9.2°
Maximum altitude 20:41:31 38° 6° (N) 879 4.2 -9.7°
Drops below altitude 10° 20:45:31 10° 76° (ENE) 1,877 5.2 -10.2°
Enters shadow 20:47:01 - 82° (E) 2,438 5.7 -10.4°
